Home   Weather   Öhringen   Past weeks

Flag for Germany Past Weather in Öhringen, Baden-Württemberg, Germany — Yesterday and Last 2 Weeks

Now
16 °F

Cold.


Feels Like: 4 °F
Forecast: 8 / 21 °F
Wind: 9 mph from Southeast

Location: Niederstetten

Current Time: Jan 22, 2017 at 3:08:32 am

Latest Report: Jan 22, 2017 at 2:20 am


Visibility: 4 mi

Pressure: 30.30 "Hg

Humidity: 79%

Dew Point: 10 °F

Location of ÖhringenLocation

Past Weather in Öhringen — Graph

°F

Öhringen Temperature Yesterday

Maximum temperature yesterday: 27 °F (at 12:20 pm)
Minimum temperature yesterday: 16 °F (at 11:20 pm)
Average temperature yesterday: 22 °F

High & Low Weather Summary for the Past Weeks

 TemperatureHumidityPressure
High39 °F (Jan 13, 1:20 am)100% (Jan 8, 10:20 am)30.57 "Hg (Jan 8, 10:20 am)
Low10 °F (Jan 7, 1:20 am)36% (Jan 20, 9:20 pm)29.24 "Hg (Jan 13, 1:20 am)
Average26 °F82%30.10 "Hg
* Reported Jan 7 1:20 am — Jan 22 1:20 am, Öhringen, Weather by CustomWeather, © 2017

Note: Actual official high and low records may vary slightly from our data, if they occured in-between our weather recording intervals... More about our weather records

Advertising

Öhringen Weather History for the Previous 24 Hours

Scroll right to see more
 ConditionsComfort  
Time TempWeatherWind HumidityBarometerVisibility
1:20 am
Sun, Jan 22
16 °FCold.7 mph79%30.30 "Hg4 mi
12:20 am16 °FCold.6 mph79%30.30 "Hg4 mi
11:20 pm
Sat, Jan 21
16 °FCold.9 mph79%30.30 "Hg4 mi
10:20 pm19 °FCold.7 mph73%30.33 "Hg4 mi
9:20 pm21 °FCold.9 mph74%30.33 "Hg5 mi
8:20 pm23 °FCold.7 mph68%30.33 "Hg5 mi
7:20 pm23 °FCold.8 mph68%30.33 "Hg5 mi
6:20 pm21 °FCold.6 mph68%30.33 "Hg5 mi
5:20 pm23 °FPassing clouds.6 mph68%30.33 "Hg5 mi
4:20 pm27 °FChilly.9 mph64%30.33 "Hg6 mi
3:20 pm27 °FChilly.5 mph59%30.33 "HgN/A
2:20 pm27 °FChilly.9 mph64%30.33 "HgN/A
1:20 pm27 °FChilly.8 mph59%30.36 "HgN/A
12:20 pm27 °FChilly.9 mph59%30.36 "HgN/A
11:20 am25 °FPassing clouds.6 mph59%30.36 "HgN/A
10:20 am23 °FPassing clouds.6 mph63%30.39 "HgN/A
9:20 am21 °FPassing clouds.6 mph63%30.36 "HgN/A
8:20 am18 °FPassing clouds.8 mph68%30.36 "HgN/A
7:20 am18 °FPassing clouds.8 mph68%30.36 "HgN/A
6:20 am18 °FPassing clouds.6 mph62%30.36 "HgN/A
5:20 am19 °FCold.7 mph58%30.36 "HgN/A
4:20 am19 °FCold.8 mph58%30.39 "HgN/A
Weather by CustomWeather, © 2017

See weather overviewHow to use our weather pages